GW4788 Weather Reports


Display with metric or nautical units.
time (UTC)temp
F
wind
direction
speed
MPH
gust
MPH
rain 1hr
in
rain 24hr
in
rain mn
in
humidity
%
barometer
mb
20260503032520 38 291 0.0 2.0 0.00 0.00 0.00 81 1017.2
20260503031518 38 244 0.0 1.0 0.00 0.00 0.00 81 1017.2
20260503030518 38 230 0.0 1.0 0.00 0.00 0.00 80 1017.3
20260503025541 38 190 0.0 1.0 0.00 0.00 0.00 80 1017.4
20260503024521 38 285 0.0 1.0 0.00 0.00 0.00 79 1017.4
20260503023518 39 269 0.0 2.0 0.00 0.00 0.00 77 1017.5
20260503022538 39 278 0.0 1.0 0.00 0.00 0.00 77 1017.6
20260503021518 40 296 1.0 2.0 0.00 0.00 0.00 74 1017.5
20260503020518 41 251 0.0 2.0 0.00 0.00 0.00 71 1017.5
20260503015519 42 290 0.0 1.0 0.00 0.00 0.00 67 1017.4
20260503014518 43 305 0.0 1.0 0.00 0.00 0.00 64 1017.3
20260503013518 43 263 0.0 1.0 0.00 0.00 0.00 64 1017.1
20260503012558 43 269 0.0 1.0 0.00 0.00 0.00 62 1017.0
20260503011519 44 247 0.0 2.0 0.00 0.00 0.00 63 1017.0
20260503010539 44 274 0.0 1.0 0.00 0.00 0.00 61 1017.0
20260503005519 45 346 0.0 2.0 0.00 0.03 0.00 60 1016.8
20260503004516 45 4 0.0 1.0 0.00 0.08 0.00 61 1016.8
20260503003519 45 24 1.0 4.0 0.00 0.08 0.00 59 1016.7
20260503002539 45 1 1.0 4.0 0.00 0.08 0.00 60 1016.8
20260503001516 45 21 0.0 2.0 0.00 0.08 0.00 60 1016.6
20260503000618 45 14 1.0 6.0 0.00 0.08 0.00 59 1016.5
20260502235517 46 305 1.0 4.0 0.00 0.08 0.00 58 1016.5
20260502234520 46 17 1.0 5.0 0.00 0.08 0.00 58 1016.5
20260502233520 46 240 1.0 4.0 0.00 0.08 0.00 58 1016.5
20260502232521 46 6 1.0 8.0 0.00 0.08 0.00 57 1016.4
20260502231517 46 275 1.0 5.0 0.00 0.08 0.00 56 1016.4
20260502230520 47 319 1.0 6.0 0.00 0.08 0.00 57 1016.4
20260502225520 47 30 2.0 7.0 0.00 0.08 0.00 56 1016.4
20260502224520 47 276 1.0 4.0 0.00 0.08 0.00 56 1016.4
20260502223518 47 278 1.0 3.0 0.00 0.08 0.00 55 1016.4
20260502222538 47 259 1.0 2.0 0.00 0.08 0.00 56 1016.3
20260502221517 47 359 1.0 3.0 0.00 0.08 0.00 54 1016.3
20260502220518 48 289 1.0 3.0 0.00 0.08 0.00 54 1016.3
20260502215518 48 345 1.0 4.0 0.00 0.08 0.00 53 1016.1
20260502214558 48 345 1.0 5.0 0.00 0.08 0.00 53 1016.2
20260502213519 48 308 1.0 5.0 0.00 0.08 0.00 54 1016.1
20260502212538 48 338 1.0 2.0 0.00 0.08 0.00 55 1016.0
20260502211519 48 311 1.0 3.0 0.00 0.08 0.00 55 1015.9
20260502210519 48 7 1.0 3.0 0.00 0.08 0.00 53 1015.9
20260502205518 49 316 1.0 3.0 0.00 0.08 0.00 53 1015.9
20260502204519 49 334 1.0 3.0 0.00 0.08 0.00 54 1015.7
20260502203519 48 327 1.0 3.0 0.00 0.08 0.00 55 1015.9
20260502202520 48 319 1.0 2.0 0.00 0.08 0.00 54 1015.9
20260502201519 48 333 1.0 4.0 0.00 0.08 0.00 53 1016.0
20260502200519 49 352 1.0 7.0 0.00 0.08 0.00 52 1016.0
20260502195516 48 321 1.0 2.0 0.00 0.08 0.00 52 1016.0
20260502194519 48 12 1.0 6.0 0.00 0.08 0.00 54 1016.3
20260502193519 49 354 1.0 5.0 0.00 0.08 0.00 54 1016.3
20260502192520 49 339 1.0 3.0 0.00 0.08 0.00 53 1016.4
20260502191521 49 10 1.0 4.0 0.00 0.08 0.00 51 1016.0
20260502190517 48 339 1.0 3.0 0.00 0.08 0.00 55 1016.4
20260502185537 48 337 1.0 3.0 0.00 0.08 0.00 56 1016.6
20260502184600 48 12 2.0 7.0 0.00 0.08 0.00 57 1016.2
20260502183521 48 351 1.0 3.0 0.00 0.08 0.00 56 1016.7
20260502182517 49 1 2.0 6.0 0.00 0.08 0.00 52 1016.1
20260502181518 48 12 1.0 5.0 0.00 0.08 0.00 56 1016.6
20260502180517 49 347 2.0 8.0 0.00 0.08 0.00 54 1016.6
20260502170519 47 334 1.0 7.0 0.00 0.08 0.00 57 1016.4
20260502163519 47 11 2.0 8.0 0.00 0.09 0.00 57 1016.9
20260502162518 48 348 1.0 4.0 0.00 0.09 0.00 58 1017.2
20260502161519 48 32 1.0 3.0 0.00 0.09 0.00 61 1016.1
20260502160516 46 15 2.0 7.0 0.00 0.09 0.00 63 1017.0
20260502151516 45 22 3.0 7.0 0.00 0.22 0.00 66 1016.5
20260502150536 45 348 2.0 7.0 0.00 0.24 0.00 68 1017.0
20260502130538 40 346 1.0 5.0 0.00 0.42 0.00 81 1016.4
20260502123541 38 355 1.0 3.0 0.00 0.45 0.00 82 1016.1
20260502122518 37 306 1.0 2.0 0.00 0.46 0.00 85 1016.2
20260502121519 37 291 1.0 3.0 0.00 0.46 0.00 87 1016.1
20260502120518 36 294 1.0 2.0 0.00 0.46 0.00 88 1016.0
20260502115518 35 304 0.0 2.0 0.00 0.46 0.00 92 1016.0
20260502114518 34 353 1.0 3.0 0.00 0.46 0.00 95 1016.0
20260502113519 34 289 1.0 2.0 0.00 0.46 0.00 98 1016.1
20260502112536 33 251 1.0 2.0 0.00 0.46 0.00 99 1016.0
20260502111519 32 247 0.0 1.0 0.00 0.46 0.00 99 1016.0
20260502110519 32 276 0.0 1.0 0.00 0.46 0.00 99 1016.0
20260502105519 32 248 0.0 1.0 0.00 0.46 0.00 99 1016.1
20260502104539 32 266 0.0 1.0 0.00 0.46 0.00 100 1016.0
20260502103539 32 265 0.0 1.0 0.00 0.46 0.00 100 1016.0
20260502102519 32 265 0.0 2.0 0.00 0.46 0.00 100 1016.1
20260502101619 33 267 0.0 1.0 0.00 0.46 0.00 100 1016.1
20260502100519 33 276 0.0 1.0 0.00 0.46 0.00 100 1016.0
20260502091518 33 299 0.0 1.0 0.00 0.46 0.00 99 1016.1
20260502090518 33 300 0.0 1.0 0.00 0.46 0.00 99 1016.0
20260502071520 35 290 0.0 1.0 0.00 0.46 0.00 100 1015.8
20260502070519 35 263 0.0 1.0 0.00 0.46 0.00 100 1016.0
20260502065519 35 316 0.0 1.0 0.00 0.46 0.00 100 1016.0
20260502064539 35 308 0.0 1.0 0.00 0.46 0.00 100 1016.1
20260502063520 35 289 0.0 1.0 0.00 0.46 0.00 100 1016.1
20260502062540 35 304 0.0 1.0 0.00 0.46 0.00 100 1016.1
20260502061517 35 236 0.0 1.0 0.00 0.46 0.00 100 1016.2
20260502060517 36 234 0.0 1.0 0.00 0.46 0.00 100 1016.2
20260502055540 36 310 0.0 1.0 0.00 0.46 0.00 100 1016.2
20260502054521 36 316 0.0 1.0 0.00 0.46 0.00 99 1016.3
20260502053521 36 266 0.0 1.0 0.00 0.46 0.00 99 1016.5
20260502052518 36 271 0.0 2.0 0.00 0.46 0.00 99 1016.5
20260502051519 37 270 0.0 1.0 0.00 0.46 0.00 99 1016.4
20260502050518 37 271 0.0 1.0 0.00 0.46 0.00 99 1016.4
20260502045519 37 236 0.0 1.0 0.00 0.46 0.00 99 1016.4
20260502044518 37 278 0.0 1.0 0.00 0.46 0.00 99 1016.3
20260502043518 37 279 0.0 1.0 0.00 0.46 0.00 99 1016.3
20260502042518 37 234 0.0 1.0 0.00 0.46 0.00 99 1016.4
20260502041519 38 2 1.0 2.0 0.00 0.46 0.00 99 1016.4
20260502040519 38 224 0.0 1.0 0.00 0.46 0.00 98 1016.4
20260502035540 38 299 0.0 1.0 0.00 0.46 0.46 98 1016.3
20260502034519 38 286 1.0 2.0 0.00 0.46 0.46 98 1016.3
20260502033519 38 259 0.0 2.0 0.00 0.46 0.46 98 1016.3